Home > Time Zones > World Clock > Weather > U.S.A. > Adak > Past weeks

Flag for U.S.A. Weather past 2 weeks in Adak, Alaska, U.S.A.

Now
34 °F

Overcast.


Feels Like: 22 °F
Forecast: 32 / 35 °F
Wind: 23 mph from North

Location: Adak

Current Time: Mar 27, 2015 at 8:44:30 AM

Latest Report: Mar 27, 2015 at 8:16 AM


Visibility: 10 mi

Pressure: 29.50 "Hg

Humidity: 51%

Dew point: 18 °F

Location of AdakLocation

Historic Weather in Adak — Graph

°F

Adak temperature yesterday

Maximum temperature yesterday: 37 °F (at 1:36 PM)
Minimum temperature yesterday: 30 °F (at 12:16 AM)
Average temperature yesterday: 33 °F

Past Weeks' High & Low Weather Summary

 TemperatureHumidityPressure
High41 °F (Mar 20, 3:16 PM)100% (Mar 16, 6:36 PM)30.09 "Hg (Mar 16, 6:36 PM)
Low28 °F (Mar 25, 8:56 AM)45% (Mar 26, 2:56 PM)29.29 "Hg (Mar 13, 4:56 AM)
Average35 °F74%29.71 "Hg
* Reported Mar 12 7:16 AM — Mar 27 7:36 AM, Adak, Weather by CustomWeather, © 2015

Note: Actual official high and low records may vary slightly from our data, if they occured in-between our weather recording intervals... More about our weather records

Advertising

Adak weather history for previous 24 hours

 ConditionsComfort  
Time TempWeatherWind HumidityBarometerVisibility
7:36 AM
Fri, Mar 27
34 °FOvercast.17 mph56%29.50 "Hg10 mi
7:16 AM34 °FMostly cloudy.21 mph56%29.50 "Hg10 mi
6:56 AM34 °FPassing clouds.22 mph51%29.50 "Hg10 mi
6:36 AM34 °FMostly cloudy.21 mph60%29.49 "Hg10 mi
6:16 AM34 °FOvercast.23 mph56%29.49 "Hg10 mi
5:56 AM34 °FPartly cloudy.22 mph60%29.49 "Hg10 mi
5:36 AM34 °FPassing clouds.21 mph56%29.49 "Hg10 mi
5:16 AM34 °FPassing clouds.18 mph51%29.49 "Hg10 mi
4:56 AM34 °FPartly cloudy.18 mph51%29.49 "Hg10 mi
4:36 AM34 °FOvercast.17 mph56%29.49 "Hg10 mi
4:16 AM34 °FOvercast.12 mph56%29.49 "Hg10 mi
3:56 AM34 °FOvercast.20 mph51%29.49 "Hg10 mi
3:36 AM34 °FMostly cloudy.20 mph51%29.49 "Hg10 mi
3:16 AM34 °FOvercast.17 mph51%29.49 "Hg10 mi
2:56 AM34 °FMostly cloudy.17 mph56%29.49 "Hg10 mi
2:36 AM34 °FMostly cloudy.16 mph56%29.49 "Hg10 mi
2:16 AM34 °FOvercast.21 mph56%29.49 "Hg10 mi
1:56 AM34 °FMostly cloudy.18 mph56%29.49 "Hg10 mi
1:36 AM34 °FMostly cloudy.15 mph56%29.49 "Hg10 mi
1:16 AM34 °FOvercast.20 mph51%29.49 "Hg10 mi
12:56 AM34 °FOvercast.13 mph56%29.49 "Hg10 mi
12:36 AM34 °FMostly cloudy.17 mph51%29.49 "Hg10 mi
12:16 AM34 °FOvercast.12 mph51%29.49 "Hg10 mi
11:56 PM
Thu, Mar 26
34 °FMostly cloudy.15 mph51%29.49 "Hg10 mi
11:36 PM34 °FOvercast.16 mph51%29.49 "Hg10 mi
11:16 PM34 °FMostly cloudy.15 mph48%29.49 "Hg10 mi
10:56 PM34 °FMostly cloudy.15 mph56%29.49 "Hg10 mi
10:36 PM34 °FOvercast.16 mph51%29.49 "Hg10 mi
10:16 PM34 °FOvercast.17 mph51%29.49 "Hg10 mi
9:56 PM34 °FOvercast.14 mph56%29.48 "Hg10 mi
9:36 PM34 °FOvercast.15 mph56%29.48 "Hg10 mi
9:16 PM34 °FPassing clouds.17 mph51%29.47 "Hg10 mi
8:56 PM34 °FOvercast.16 mph51%29.47 "Hg10 mi
8:36 PM34 °FPartly sunny.16 mph56%29.47 "Hg10 mi
8:16 PM34 °FScattered clouds.16 mph56%29.47 "Hg10 mi
7:56 PM34 °FBroken clouds.20 mph60%29.47 "Hg10 mi
7:36 PM34 °FPartly sunny.16 mph56%29.47 "Hg10 mi
6:56 PM36 °FPassing clouds.22 mph56%29.47 "Hg10 mi
6:16 PM37 °FMostly cloudy.18 mph52%29.47 "Hg10 mi
5:56 PM36 °FBroken clouds.17 mph56%29.47 "Hg10 mi
5:36 PM36 °FScattered clouds.16 mph60%29.48 "Hg10 mi
5:16 PM36 °FMore clouds than sun.21 mph56%29.48 "Hg10 mi
4:56 PM36 °FMore clouds than sun.16 mph56%29.49 "Hg10 mi
4:36 PM37 °FOvercast.16 mph48%29.49 "Hg10 mi
4:16 PM36 °FMore clouds than sun.16 mph65%29.50 "Hg10 mi
3:56 PM36 °FBroken clouds.17 mph60%29.50 "Hg10 mi
3:36 PM36 °FMostly cloudy.16 mph52%29.51 "Hg10 mi
3:16 PM37 °FOvercast.18 mph56%29.52 "Hg10 mi
2:56 PM37 °FPartly sunny.18 mph45%29.52 "Hg10 mi
2:36 PM37 °FScattered clouds.21 mph52%29.52 "Hg10 mi
2:16 PM36 °FPartly sunny.18 mph52%29.52 "Hg10 mi
1:56 PM36 °FOvercast.18 mph52%29.53 "Hg10 mi
1:36 PM37 °FPartly sunny.18 mph52%29.53 "Hg10 mi
1:16 PM36 °FOvercast.21 mph52%29.53 "Hg10 mi
12:56 PM36 °FOvercast.18 mph56%29.54 "Hg10 mi
12:36 PM34 °FBroken clouds.22 mph56%29.54 "Hg10 mi
12:16 PM34 °FCloudy.17 mph60%29.54 "Hg10 mi
11:56 AM34 °FBroken clouds.15 mph56%29.54 "Hg10 mi
11:36 AM34 °FOvercast.15 mph60%29.55 "Hg10 mi
11:16 AM34 °FOvercast.15 mph56%29.55 "Hg10 mi
10:56 AM34 °FOvercast.17 mph51%29.55 "Hg10 mi
10:36 AM34 °FMore clouds than sun.17 mph56%29.56 "Hg10 mi
10:16 AM34 °FCloudy.16 mph56%29.56 "Hg10 mi
9:56 AM32 °FMore clouds than sun.23 mph60%29.56 "Hg10 mi
9:36 AM32 °FOvercast.13 mph60%29.57 "Hg9 mi
9:16 AM30 °FMore clouds than sun.13 mph64%29.57 "Hg10 mi
8:56 AM32 °FOvercast.17 mph60%29.57 "Hg10 mi
8:36 AM30 °FOvercast.17 mph59%29.57 "Hg10 mi
8:16 AM30 °FPassing clouds.15 mph59%29.57 "Hg10 mi
Weather by CustomWeather, © 2015

See weather overviewHow to use our weather pages